Regional Weather Roundup
Issued by NWS

Home | Current Version | Previous Version | Text Only | Print | Product List | Glossary On
Versions: 1 2 3 4 5 6 7 8 9 10 11 12 13 14 15 16 17 18 19 20 21 22 23 24 25 26 27 28 29 30 31 32 33 34 35 36 37 38 39 40 41 42 43 44 45 46 47 48 49 50
000
ASUS43 KOAX 020702
RWRNE

WEATHER ROUNDUP FOR NEBRASKA
NATIONAL WEATHER SERVICE OMAHA NE
200 AM CDT THU APR 02 2015

NOTES: SATELLITE DATA IS BEING USED TO AUGMENT CLOUD COVER ABOVE
       12000 FEET.
       "FAIR" INDICATES FEW OR NO CLOUDS BELOW 12,000 FEET WITH NO
       SIGNIFICANT WEATHER AND/OR OBSTRUCTIONS TO VISIBILITY.

  * THESE STATIONS DO NOT REPORT WEATHER SUCH AS RAIN...SNOW OR FOG.

NEZ001>004-019>022-054>056-020800-
NEBRASKA PANHANDLE

CITY           SKY/WX    TMP DP  RH WIND       PRES   REMARKS
SCOTTSBLUFF    CLEAR     32  23  69 NW10      29.93R WCI  24
ALLIANCE       CLEAR     26  21  81 W8        29.89R WCI  18
CHADRON        CLEAR     29  22  75 SW8       29.90R WCI  21
SIDNEY         CLEAR     36  24  62 NW10      29.91R WCI  28
$$

NEZ057>060-069>072-079>082-020800-
SOUTHWEST NEBRASKA

CITY           SKY/WX    TMP DP  RH WIND       PRES   REMARKS
NORTH PLATTE   CLOUDY    49  21  33 NE3       29.87R
IMPERIAL       MOCLDY    43  34  70 N10       29.87R
MCCOOK         LGT RAIN  51  36  56 NE18G25   29.84R
$$

NEZ005>010-023>029-035>040-094-020800-
NORTH CENTRAL NEBRASKA

CITY           SKY/WX    TMP DP  RH WIND       PRES   REMARKS
VALENTINE      CLOUDY    38  21  50 W5        29.86R WCI  34
AINSWORTH      CLOUDY    48  20  32 NW6       29.85R
BROKEN BOW     CLOUDY    53  23  31 NE12      29.82S
ORD            CLOUDY    53  22  29 N10       29.82R
$$

NEZ041-046>049-061>064-073>077-083>087-020800-
SOUTH CENTRAL NEBRASKA

CITY           SKY/WX    TMP DP  RH WIND       PRES   REMARKS
GRAND ISLAND   CLOUDY    52  33  48 N17G26    29.78R
HASTINGS       CLOUDY    52  37  56 N15       29.79R
KEARNEY *      CLOUDY    54  27  35 N16       29.80F
YORK           CLOUDY    54  46  76 N13       29.74R
$$

NEZ011>018-030>034-042>045-020800-
NORTHEAST NEBRASKA

CITY           SKY/WX    TMP DP  RH WIND       PRES   REMARKS
NORFOLK        CLOUDY    55  34  45 N8        29.80S
BLAIR          LGT RAIN  55  49  78 NW8       29.74R
COLUMBUS *     CLOUDY    54  39  58 N14       29.79F
FREMONT        LGT RAIN  55  49  80 W13       29.81R
TEKAMAH        LGT RAIN  56  51  84 NW7       29.77R
$$

NEZ050>053-065>068-078-088>093-020800-
SOUTHEAST NEBRASKA

CITY           SKY/WX    TMP DP  RH WIND       PRES   REMARKS
LINCOLN        LGT RAIN  55  51  86 N21       29.71F
OMAHA EPPLEY   RAIN      55  54  96 N10       29.73R
FALLS CITY     LGT RAIN  56  53  90 NE12      29.69R
NEBRASKA CITY  TSTM      55  55 100 N6        29.74R
$$

NEZ044-045-051>053-067-020800-
OMAHA AREA

CITY           SKY/WX    TMP DP  RH WIND       PRES   REMARKS
OMAHA EPPLEY   RAIN      55  54  96 N10       29.73R
BLAIR          LGT RAIN  55  49  78 NW8       29.74R
FREMONT        LGT RAIN  55  49  80 W13       29.81R
OFFUTT AFB     RAIN      56  54  93 NW8       29.73R
WAHOO          RAIN      55  48  77 NW13G18   29.78R
$$



USA.gov is the U.S. government's official web portal to all federal, state and local government web resources and services.